sat.trackr.live / text

‹ back to catalog

HEAD-3D

NORAD 57629 · 2023-121D

PAYLOAD ACTIVE UNKNOWN

§ Identity

Operator
Country
PRC
Launch date
2023-08-14
Launch site
XICLF
Launch vehicle
Mass (kg)
RCS (m²)

External: N2YO · Heavens-Above · Gunter

§ Orbital elements

Epoch: 2026-09-21T23:14:30.870240Z

Period
98.42 min
Inclination
45.0049°
Eccentricity
0.0007356
Mean motion
14.63054714 rev/d
Perigee alt
678.1 km
Apogee alt
688.5 km
Semi-major
7,061.5 km
B*
1.2300e-4
RAAN
176.9926°
Arg perigee
45.6274°
Mean anomaly
314.5185°
Rev number
16,597

§ Raw data

HEAD-3D1 57629U 23121D   26264.96841285  .00000474  00000+0  12300-3 0  99942 57629  45.0049 176.9926 0007356  45.6274 314.5185 14.63054714165972

JSON: /api/v1/satellites/57629 · /tle

For live sub-satellite position, see the globe view (requires WebGL).

§ Visibility from observer

Set your observer location to see the next 7 days of passes ≥ 10°. The values pass through the URL so the page stays shareable.

No JS? Fill the form by hand. The geolocation button needs JavaScript.